Time,TemperatureF,DewpointF,PressureIn,WindDirection,WindDirectionDegrees,WindSpeedMPH,WindSpeedGustMPH,Humidity,HourlyPrecipIn,Conditions,Clouds,dailyrainin,SolarRadiationWatts/m^2,SoftwareType,DateUTC
2013-10-12 00:44:00,48.0,45.0,-100.00,SSE,154,6.0,9.0,91,0.00,,,0.00,0.000000,,2013-10-12 04:44:00,
2013-10-12 00:54:00,48.0,45.0,-100.00,SSE,154,6.0,9.0,91,0.00,,,0.00,0.000000,,2013-10-12 04:54:00,
2013-10-12 01:03:00,48.0,45.0,-100.00,SSE,154,6.0,9.0,91,0.00,,,0.00,0.000000,,2013-10-12 05:03:00,
2013-10-12 01:43:00,47.0,45.0,-100.00,SSE,156,5.0,8.0,93,0.00,,,0.00,0.000000,,2013-10-12 05:43:00,
2013-10-12 01:52:00,47.0,45.0,-100.00,SSE,156,5.0,8.0,93,0.00,,,0.00,0.000000,,2013-10-12 05:52:00,
2013-10-12 02:02:00,47.0,45.0,-100.00,SSE,156,5.0,8.0,93,0.00,,,0.00,0.000000,,2013-10-12 06:02:00,
2013-10-12 02:42:00,47.0,46.0,-100.00,SSE,154,5.0,7.0,95,0.00,,,0.00,0.000000,,2013-10-12 06:42:00,
2013-10-12 02:52:00,47.0,46.0,-100.00,SSE,154,5.0,7.0,95,0.00,,,0.00,0.000000,,2013-10-12 06:52:00,
2013-10-12 03:03:00,47.0,46.0,-100.00,SSE,154,5.0,7.0,95,0.00,,,0.00,0.000000,,2013-10-12 07:03:00,
2013-10-12 03:42:00,47.0,46.0,-100.00,SSE,150,5.0,7.0,97,0.00,,,0.00,0.000000,,2013-10-12 07:42:00,
2013-10-12 03:52:00,47.0,46.0,-100.00,SSE,150,5.0,7.0,97,0.00,,,0.00,0.000000,,2013-10-12 07:52:00,
2013-10-12 04:02:00,47.0,46.0,-100.00,SSE,150,5.0,7.0,97,0.00,,,0.00,0.000000,,2013-10-12 08:02:00,
2013-10-12 04:23:00,47.0,46.0,-100.00,SE,138,4.0,8.0,98,0.00,,,0.00,0.000000,,2013-10-12 08:23:00,
2013-10-12 04:32:00,47.0,46.0,-100.00,SE,138,4.0,8.0,98,0.00,,,0.00,0.000000,,2013-10-12 08:32:00,
2013-10-12 04:43:00,47.0,46.0,-100.00,SE,138,4.0,8.0,98,0.00,,,0.00,0.000000,,2013-10-12 08:43:00,
2013-10-12 04:52:00,47.0,46.0,-100.00,SE,138,4.0,8.0,98,0.00,,,0.00,0.000000,,2013-10-12 08:52:00,
2013-10-12 05:02:00,47.0,46.0,-100.00,SE,138,4.0,8.0,98,0.00,,,0.00,0.000000,,2013-10-12 09:02:00,
2013-10-12 05:22:00,47.0,46.0,-100.00,ESE,117,3.0,7.0,98,0.00,,,0.00,0.000000,,2013-10-12 09:22:00,
2013-10-12 05:33:00,47.0,46.0,-100.00,ESE,117,3.0,7.0,98,0.00,,,0.00,0.000000,,2013-10-12 09:33:00,
2013-10-12 05:43:00,47.0,46.0,-100.00,ESE,117,3.0,7.0,98,0.00,,,0.00,0.000000,,2013-10-12 09:43:00,
2013-10-12 05:54:00,47.0,46.0,-100.00,ESE,117,3.0,7.0,98,0.00,,,0.00,0.000000,,2013-10-12 09:54:00,
2013-10-12 06:03:00,47.0,46.0,-100.00,ESE,117,3.0,7.0,98,0.00,,,0.00,0.000000,,2013-10-12 10:03:00,
2013-10-12 06:42:00,47.0,46.0,-100.00,ESE,111,3.0,6.0,98,0.00,,,0.00,0.000000,,2013-10-12 10:42:00,
2013-10-12 06:53:00,47.0,46.0,-100.00,ESE,111,3.0,6.0,98,0.00,,,0.00,0.000000,,2013-10-12 10:53:00,
2013-10-12 07:02:00,47.0,46.0,-100.00,ESE,111,3.0,6.0,98,0.00,,,0.00,0.000000,,2013-10-12 11:02:00,
2013-10-12 07:42:00,47.0,46.0,-100.00,SE,126,4.0,6.0,98,0.00,,,0.00,0.000000,,2013-10-12 11:42:00,
2013-10-12 07:52:00,47.0,46.0,-100.00,SE,126,4.0,6.0,98,0.00,,,0.00,0.000000,,2013-10-12 11:52:00,
2013-10-12 08:01:00,47.0,46.0,-100.00,SE,126,4.0,6.0,98,0.00,,,0.00,0.000000,,2013-10-12 12:01:00,
2013-10-12 08:42:00,47.0,46.0,-100.00,SE,131,4.0,7.0,98,0.00,,,0.00,2.000000,,2013-10-12 12:42:00,
2013-10-12 08:52:00,47.0,46.0,-100.00,SE,131,4.0,7.0,98,0.00,,,0.00,2.000000,,2013-10-12 12:52:00,
2013-10-12 09:02:00,47.0,46.0,-100.00,SE,131,4.0,7.0,98,0.00,,,0.00,2.000000,,2013-10-12 13:02:00,
2013-10-12 09:42:00,51.0,49.0,-100.00,SE,146,6.0,12.0,92,0.00,,,0.00,77.000000,,2013-10-12 13:42:00,
2013-10-12 09:52:00,51.0,49.0,-100.00,SE,146,6.0,12.0,92,0.00,,,0.00,77.000000,,2013-10-12 13:52:00,
2013-10-12 10:02:00,51.0,49.0,-100.00,SE,146,6.0,12.0,92,0.00,,,0.00,77.000000,,2013-10-12 14:02:00,
2013-10-12 10:42:00,56.0,50.0,-100.00,SSE,153,7.0,11.0,79,0.00,,,0.00,254.000000,,2013-10-12 14:42:00,
2013-10-12 10:52:00,56.0,50.0,-100.00,SSE,153,7.0,11.0,79,0.00,,,0.00,254.000000,,2013-10-12 14:52:00,
2013-10-12 11:02:00,56.0,50.0,-100.00,SSE,153,7.0,11.0,79,0.00,,,0.00,254.000000,,2013-10-12 15:02:00,
2013-10-12 11:22:00,62.0,50.0,-100.00,SSE,166,8.0,14.0,65,0.00,,,0.00,424.000000,,2013-10-12 15:22:00,
2013-10-12 11:33:00,62.0,50.0,-100.00,SSE,166,8.0,14.0,65,0.00,,,0.00,424.000000,,2013-10-12 15:33:00,
2013-10-12 11:44:00,62.0,50.0,-100.00,SSE,166,8.0,14.0,65,0.00,,,0.00,424.000000,,2013-10-12 15:44:00,
2013-10-12 11:54:00,62.0,50.0,-100.00,SSE,166,8.0,14.0,65,0.00,,,0.00,424.000000,,2013-10-12 15:54:00,
2013-10-12 12:03:00,62.0,50.0,-100.00,SSE,166,8.0,14.0,65,0.00,,,0.00,424.000000,,2013-10-12 16:03:00,
2013-10-12 12:43:00,68.0,49.0,-100.00,SSE,168,9.0,17.0,51,0.00,,,0.00,566.000000,,2013-10-12 16:43:00,
2013-10-12 12:53:00,68.0,49.0,-100.00,SSE,168,9.0,17.0,51,0.00,,,0.00,566.000000,,2013-10-12 16:53:00,
2013-10-12 13:03:00,68.0,49.0,-100.00,SSE,168,9.0,17.0,51,0.00,,,0.00,566.000000,,2013-10-12 17:03:00,
2013-10-12 13:42:00,71.0,49.0,-100.00,South,172,10.0,19.0,45,0.00,,,0.00,661.000000,,2013-10-12 17:42:00,
2013-10-12 13:53:00,71.0,49.0,-100.00,South,172,10.0,19.0,45,0.00,,,0.00,661.000000,,2013-10-12 17:53:00,
2013-10-12 14:02:00,71.0,49.0,-100.00,South,172,10.0,19.0,45,0.00,,,0.00,661.000000,,2013-10-12 18:02:00,
2013-10-12 14:22:00,74.0,49.0,-100.00,South,180,11.0,21.0,41,0.00,,,0.00,697.000000,,2013-10-12 18:22:00,
2013-10-12 14:32:00,74.0,49.0,-100.00,South,180,11.0,21.0,41,0.00,,,0.00,697.000000,,2013-10-12 18:32:00,
2013-10-12 14:42:00,74.0,49.0,-100.00,South,180,11.0,21.0,41,0.00,,,0.00,697.000000,,2013-10-12 18:42:00,
2013-10-12 14:52:00,74.0,49.0,-100.00,South,180,11.0,21.0,41,0.00,,,0.00,697.000000,,2013-10-12 18:52:00,
2013-10-12 15:01:00,74.0,49.0,-100.00,South,180,11.0,21.0,41,0.00,,,0.00,697.000000,,2013-10-12 19:01:00,
2013-10-12 15:42:00,74.0,48.0,-100.00,SSE,163,10.0,19.0,40,0.00,,,0.00,664.000000,,2013-10-12 19:42:00,
2013-10-12 15:52:00,74.0,48.0,-100.00,SSE,163,10.0,19.0,40,0.00,,,0.00,664.000000,,2013-10-12 19:52:00,
2013-10-12 16:03:00,74.0,48.0,-100.00,SSE,163,10.0,19.0,40,0.00,,,0.00,664.000000,,2013-10-12 20:03:00,
2013-10-12 16:43:00,72.0,49.0,-100.00,SE,141,8.0,16.0,44,0.00,,,0.00,547.000000,,2013-10-12 20:43:00,
2013-10-12 16:52:00,72.0,49.0,-100.00,SE,141,8.0,16.0,44,0.00,,,0.00,547.000000,,2013-10-12 20:52:00,
2013-10-12 17:02:00,72.0,49.0,-100.00,SE,141,8.0,16.0,44,0.00,,,0.00,547.000000,,2013-10-12 21:02:00,
2013-10-12 17:04:00,70.0,49.0,-100.00,SSE,151,8.0,14.0,47,0.00,,,0.00,115.000000,,2013-10-12 21:04:00,
2013-10-12 17:22:00,70.0,49.0,-100.00,SSE,151,8.0,14.0,47,0.00,,,0.00,115.000000,,2013-10-12 21:22:00,
2013-10-12 17:35:00,70.0,49.0,-100.00,SSE,151,8.0,14.0,47,0.00,,,0.00,115.000000,,2013-10-12 21:35:00,
2013-10-12 17:43:00,70.0,49.0,-100.00,SSE,151,8.0,14.0,47,0.00,,,0.00,115.000000,,2013-10-12 21:43:00,
2013-10-12 17:54:00,70.0,49.0,-100.00,SSE,151,8.0,14.0,47,0.00,,,0.00,115.000000,,2013-10-12 21:54:00,
2013-10-12 18:43:00,65.0,52.0,-100.00,SSE,148,7.0,12.0,63,0.00,,,0.00,80.000000,,2013-10-12 22:43:00,
2013-10-12 18:54:00,65.0,52.0,-100.00,SSE,148,7.0,12.0,63,0.00,,,0.00,80.000000,,2013-10-12 22:54:00,
2013-10-12 19:02:00,65.0,52.0,-100.00,SSE,148,7.0,12.0,63,0.00,,,0.00,80.000000,,2013-10-12 23:02:00,
2013-10-12 19:22:00,62.0,53.0,-100.00,SSE,160,7.0,12.0,72,0.00,,,0.00,27.000000,,2013-10-12 23:22:00,
2013-10-12 19:33:00,62.0,53.0,-100.00,SSE,160,7.0,12.0,72,0.00,,,0.00,27.000000,,2013-10-12 23:33:00,
2013-10-12 19:42:00,62.0,53.0,-100.00,SSE,160,7.0,12.0,72,0.00,,,0.00,27.000000,,2013-10-12 23:42:00,
2013-10-12 19:52:00,62.0,53.0,-100.00,SSE,160,7.0,12.0,72,0.00,,,0.00,27.000000,,2013-10-12 23:52:00,
2013-10-12 20:01:00,62.0,53.0,-100.00,SSE,160,7.0,12.0,72,0.00,,,0.00,27.000000,,2013-10-13 00:01:00,
2013-10-12 20:22:00,60.0,54.0,-100.00,SSE,148,4.0,10.0,80,0.00,,,0.00,0.000000,,2013-10-13 00:22:00,
2013-10-12 20:32:00,60.0,54.0,-100.00,SSE,148,4.0,10.0,80,0.00,,,0.00,0.000000,,2013-10-13 00:32:00,
2013-10-12 20:42:00,60.0,54.0,-100.00,SSE,148,4.0,10.0,80,0.00,,,0.00,0.000000,,2013-10-13 00:42:00,
2013-10-12 20:52:00,60.0,54.0,-100.00,SSE,148,4.0,10.0,80,0.00,,,0.00,0.000000,,2013-10-13 00:52:00,
2013-10-12 21:01:00,60.0,54.0,-100.00,SSE,148,4.0,10.0,80,0.00,,,0.00,0.000000,,2013-10-13 01:01:00,
2013-10-12 21:42:00,59.0,53.0,-100.00,SSE,157,3.0,7.0,81,0.00,,,0.00,0.000000,,2013-10-13 01:42:00,
2013-10-12 21:52:00,59.0,53.0,-100.00,SSE,157,3.0,7.0,81,0.00,,,0.00,0.000000,,2013-10-13 01:52:00,
2013-10-12 22:02:00,59.0,53.0,-100.00,SSE,157,3.0,7.0,81,0.00,,,0.00,0.000000,,2013-10-13 02:02:00,
2013-10-12 22:43:00,57.0,55.0,-100.00,South,173,4.0,9.0,92,0.05,,,0.05,0.000000,,2013-10-13 02:43:00,
2013-10-12 22:52:00,57.0,55.0,-100.00,South,173,4.0,9.0,92,0.05,,,0.05,0.000000,,2013-10-13 02:52:00,
2013-10-12 23:02:00,57.0,55.0,-100.00,South,173,4.0,9.0,92,0.05,,,0.05,0.000000,,2013-10-13 03:02:00,
2013-10-12 23:45:00,60.0,59.0,-100.00,SSW,202,10.0,17.0,96,0.03,,,0.08,0.000000,,2013-10-13 03:45:00,
2013-10-12 23:54:00,60.0,59.0,-100.00,SSW,202,10.0,17.0,96,0.03,,,0.08,0.000000,,2013-10-13 03:54:00,